Regional Weather Roundup
Issued by NWS Cleveland, OH

Home | Current Version | Previous Version | Text Only | Print | Product List | Glossary On
Versions: 1 2 3 4 5 6 7 8 9 10 11 12 13 14 15 16 17 18 19 20 21 22 23 24 25 26 27 28 29 30 31 32 33 34 35 36 37 38 39 40 41 42 43 44 45 46 47 48 49 50
000
ASUS41 KCLE 241210
RWRCLE
OHIO REGIONAL WEATHER ROUNDUP
NATIONAL WEATHER SERVICE CLEVELAND, OH
800 AM EDT THU APR 24 2014

NOTE: "FAIR" INDICATES FEW OR NO CLOUDS BELOW 12,000 FEET WITH NO
SIGNIFICANT WEATHER AND/OR OBSTRUCTIONS TO VISIBILITY.

OHZ001>008-015>018-024>027-034-035-043-044-241300-
   NORTHWEST OHIO

CITY           SKY/WX    TMP DP  RH WIND       PRES   REMARKS
DEFIANCE       CLOUDY    45  32  60 E7        30.14S
FINDLAY        CLOUDY    44  28  53 E9        30.15R
TOLEDO EXPRESS CLOUDY    43  24  47 SE6       30.16R
TOLEDO EXEC    CLOUDY    44  27  51 E7        30.18R
LIMA           CLOUDY    46  30  53 SE12      30.14R
$$

OHZ009>014-019>023-028>033-038-089-241300-
   NORTHEAST OHIO

CITY           SKY/WX    TMP DP  RH WIND       PRES   REMARKS
CLE-HOPKINS    PTSUNNY   42  22  44 CALM      30.21R
CLE-LAKEFRONT  PTSUNNY   40  20  44 CALM      30.17R
CUY CO. ARPT   PTSUNNY   37  25  60 SE5       30.18R
LORAIN-ELYRIA  MOSUNNY   43  28  55 E3        30.19R
ASHTABULA      SUNNY     31  26  82 SW3       30.17R
AKRON-CANTON   CLOUDY    38  24  57 NE3       30.17R
WOOSTER        CLOUDY    38  25  59 E3        30.17R
MANSFIELD      CLOUDY    40  15  36 E7        30.16R
YOUNGSTOWN     PTSUNNY   36  26  67 CALM      30.16R
$$

OHZ042-051>053-060>062-070>072-077>081-241300-
  SOUTHWEST OHIO

CITY           SKY/WX    TMP DP  RH WIND       PRES   REMARKS
CINC-COVINGTON CLOUDY    48  33  56 E14       30.10R
CINC-LUNKEN    PTSUNNY   48  34  58 E7        30.13R
HAMILTON       CLOUDY    49  34  56 E9        30.13R
DAYTON         CLOUDY    46  29  51 E10       30.14R
WRIGHT-PAT AFB PTSUNNY   45  29  53 E8        30.13R
DAYTON GENERAL CLOUDY    46  29  51 E8        30.12R
WILMINGTON     PTSUNNY   42  32  67 E8        30.12S
$$

OHZ036-037-039>041-045>050-054>059-063>069-073>076-082>088-241300-
  CENTRAL AND SOUTHEAST OHIO

CITY           SKY/WX    TMP DP  RH WIND       PRES   REMARKS
COLUMBUS       CLOUDY    46  20  35 E5        30.16R
OSU AIRPORT    CLOUDY    44  23  43 E5        30.16R
BOLTON FIELD   CLOUDY    45  25  45 E7        30.17R
RICKENBACK AFB PTSUNNY   45  27  50 E3        30.16R
NEWARK         CLOUDY    42  26  53 VRB3      30.16R
MARION         CLOUDY    42  21  43 SE5       30.17R
LANCASTER      PTSUNNY   44  26  49 CALM      30.16R
ZANESVILLE     PTSUNNY   39  29  67 CALM      30.16R
NEW PHILLY     CLOUDY    36  31  82 CALM      30.18R
$$



USA.gov is the U.S. government's official web portal to all federal, state and local government web resources and services.